Location: Riverside Cemetery
(38.3047°N, 99.7773°W)
Time: 19:03:41
(UTC+00:00)

ARGOS - Pass Details

Date: 19 September 2020
Orbit: 821 x 834 km, 98.4° (Epoch: 22 October)

Event Time Altitude Azimuth Distance (km) Brightness Sun altitude
Exits shadow 01:58:12 - 163° (SSE) 3,152 5.9 -15.7°
Reaches altitude 10° 02:00:04 10° 163° (SSE) 2,409 5.3 -16.1°
Maximum altitude 02:05:24 84° 76° (ENE) 832 3.1 -17.1°
Drops below altitude 10° 02:10:48 10° 349° (NNW) 2,429 5.9 -18.1°
Sets 02:13:09 0° 348° (NNW) 3,368 6.7 -18.5°
